Location: Central Falls
(41.8900°N, 71.3929°W)
Time: 14:17:56
(UTC+00:00)

Courier 1B Rocket - Pass Details

Date: 11 December 2023
Orbit: 920 x 1202 km, 28.2° (Epoch: 01 March)

Event Time Altitude Azimuth Distance (km) Brightness Sun altitude
Rises 13:29:10 0° 217° (SW) 3,998 8.3 11.7°
Reaches altitude 10° 13:33:12 10° 198° (SSW) 2,989 8.0 12.2°
Maximum altitude 13:37:30 17° 162° (SSE) 2,469 8.6 12.8°
Drops below altitude 10° 13:41:41 10° 125° (SE) 2,868 9.5 13.3°
Sets 13:45:24 0° 105° (ESE) 3,764 9.1 13.7°
